• In Russia
  • List of Countries
  • For 7 days
  • Water Temperature
  • Satellite Maps
  • Weather Map
  • Weather Widgets
  • user-avatar
    Login

    Hourly Weather Hobart

    Today, 21 January, Saturday

    Time Temperature Precipitation Wind Pressure Humidity
    00:00 +8°C° 0 mm 5 mps 740 mmHg 93%
    01:00 +7°C° 0 mm 5 mps 741 mmHg 93%
    02:00 +7°C° 0 mm 5 mps 741 mmHg 93%
    03:00 +7°C° 0 mm 5 mps 741 mmHg 93%
    04:00 +7°C° 0 mm 4 mps 742 mmHg 94%
    05:00 +8°C° 0 mm 4 mps 742 mmHg 90%
    06:00 +9°C° 0 mm 5 mps 742 mmHg 87%
    07:00 +10°C° 0 mm 5 mps 743 mmHg 84%
    08:00 +12°C° 0 mm 5 mps 743 mmHg 82%
    09:00 +13°C° 0 mm 5 mps 743 mmHg 79%
    10:00 +14°C° 0 mm 5 mps 744 mmHg 77%
    11:00 +15°C° 0.1 mm 5 mps 744 mmHg 73%
    12:00 +15°C° 0.1 mm 5 mps 744 mmHg 70%
    13:00 +16°C° 0.1 mm 6 mps 745 mmHg 67%
    14:00 +17°C° 0 mm 5 mps 745 mmHg 64%
    15:00 +17°C° 0 mm 5 mps 745 mmHg 61%
    16:00 +17°C° 0 mm 5 mps 745 mmHg 58%
    17:00 +17°C° 0 mm 4 mps 745 mmHg 63%
    18:00 +15°C° 0 mm 4 mps 746 mmHg 68%
    19:00 +14°C° 0 mm 3 mps 746 mmHg 72%
    20:00 +13°C° 0 mm 3 mps 746 mmHg 80%
    21:00 +11°C° 0 mm 3 mps 747 mmHg 87%
    22:00 +10°C° 0 mm 3 mps 747 mmHg 94%
    23:00 +9°C° 0 mm 3 mps 747 mmHg 95%

    Tomorrow, 22 January, Sunday

    Time Temperature Precipitation Wind Pressure Humidity
    00:00 +9°C° 0 mm 2 mps 747 mmHg 96%
    01:00 +8°C° 0 mm 2 mps 747 mmHg 96%
    02:00 +8°C° 0 mm 2 mps 747 mmHg 95%
    03:00 +8°C° 0 mm 2 mps 747 mmHg 94%
    04:00 +8°C° 0 mm 2 mps 747 mmHg 93%
    05:00 +10°C° 0 mm 2 mps 747 mmHg 86%
    06:00 +12°C° 0 mm 2 mps 747 mmHg 80%
    07:00 +14°C° 0 mm 2 mps 747 mmHg 73%
    08:00 +17°C° 0 mm 2 mps 747 mmHg 63%
    09:00 +20°C° 0 mm 2 mps 747 mmHg 54%
    10:00 +24°C° 0 mm 2 mps 747 mmHg 44%
    11:00 +25°C° 0 mm 2 mps 747 mmHg 42%
    12:00 +26°C° 0 mm 3 mps 746 mmHg 40%
    13:00 +28°C° 0 mm 3 mps 746 mmHg 38%
    14:00 +28°C° 0 mm 3 mps 746 mmHg 38%
    15:00 +28°C° 0 mm 3 mps 746 mmHg 38%
    16:00 +28°C° 0 mm 3 mps 745 mmHg 38%
    17:00 +26°C° 0 mm 3 mps 745 mmHg 49%
    18:00 +23°C° 0 mm 2 mps 745 mmHg 59%
    19:00 +20°C° 0 mm 2 mps 746 mmHg 69%
    20:00 +18°C° 0 mm 2 mps 745 mmHg 77%
    21:00 +15°C° 0 mm 1 mps 745 mmHg 85%
    22:00 +12°C° 0 mm 1 mps 745 mmHg 92%
    23:00 +12°C° 0 mm 1 mps 745 mmHg 92%

    Day after tomorrow, 23 January, Monday

    Time Temperature Precipitation Wind Pressure Humidity
    00:00 +12°C° 0 mm 1 mps 745 mmHg 92%
    01:00 +12°C° 0 mm 1 mps 744 mmHg 93%
    02:00 +11°C° 0 mm 1 mps 744 mmHg 92%
    03:00 +11°C° 0 mm 1 mps 744 mmHg 92%
    04:00 +11°C° 0 mm 1 mps 743 mmHg 91%
    05:00 +13°C° 0 mm 1 mps 743 mmHg 84%
    06:00 +15°C° 0 mm 1 mps 743 mmHg 78%
    07:00 +18°C° 0 mm 2 mps 743 mmHg 71%
    08:00 +21°C° 0 mm 2 mps 742 mmHg 60%
    09:00 +25°C° 0 mm 2 mps 742 mmHg 49%
    10:00 +28°C° 0 mm 3 mps 741 mmHg 37%
    11:00 +30°C° 0 mm 3 mps 741 mmHg 33%
    12:00 +33°C° 0 mm 4 mps 740 mmHg 29%
    13:00 +35°C° 0 mm 5 mps 739 mmHg 24%
    14:00 +34°C° 0 mm 5 mps 738 mmHg 26%
    15:00 +34°C° 0 mm 6 mps 737 mmHg 27%
    16:00 +33°C° 0 mm 6 mps 737 mmHg 29%
    17:00 +29°C° 0 mm 5 mps 737 mmHg 40%
    18:00 +27°C° 0 mm 5 mps 736 mmHg 50%
    19:00 +23°C° 0 mm 5 mps 736 mmHg 61%
    20:00 +22°C° 0 mm 4 mps 736 mmHg 68%
    21:00 +20°C° 0 mm 4 mps 736 mmHg 76%
    22:00 +19°C° 0 mm 3 mps 736 mmHg 83%
    23:00 +18°C° 0 mm 3 mps 735 mmHg 84%

    24 January, Tuesday

    Time Temperature Precipitation Wind Pressure Humidity
    00:00 +18°C° 0 mm 4 mps 735 mmHg 85%
    01:00 +17°C° 0 mm 4 mps 735 mmHg 86%
    02:00 +16°C° 0.1 mm 5 mps 735 mmHg 84%
    03:00 +15°C° 0.1 mm 6 mps 735 mmHg 81%
    04:00 +15°C° 0.1 mm 7 mps 736 mmHg 78%
    05:00 +13°C° 0.1 mm 8 mps 737 mmHg 78%
    06:00 +12°C° 0.1 mm 8 mps 738 mmHg 78%
    07:00 +11°C° 0.1 mm 9 mps 739 mmHg 78%
    08:00 +12°C° 0 mm 9 mps 740 mmHg 69%
    09:00 +15°C° 0 mm 9 mps 741 mmHg 60%
    10:00 +16°C° 0 mm 10 mps 742 mmHg 51%
    11:00 +16°C° 0 mm 10 mps 743 mmHg 48%
    12:00 +16°C° 0 mm 10 mps 743 mmHg 46%
    13:00 +17°C° 0 mm 10 mps 744 mmHg 43%
    14:00 +16°C° 0 mm 10 mps 745 mmHg 42%
    15:00 +16°C° 0 mm 9 mps 745 mmHg 42%
    16:00 +16°C° 0 mm 9 mps 746 mmHg 42%
    17:00 +15°C° 0 mm 8 mps 747 mmHg 47%
    18:00 +14°C° 0 mm 7 mps 748 mmHg 52%
    19:00 +13°C° 0 mm 6 mps 749 mmHg 58%
    20:00 +11°C° 0 mm 6 mps 750 mmHg 64%
    21:00 +9°C° 0 mm 5 mps 750 mmHg 70%
    22:00 +8°C° 0 mm 4 mps 751 mmHg 77%
    23:00 +8°C° 0 mm 4 mps 751 mmHg 79%

    25 January, Wednesday

    Time Temperature Precipitation Wind Pressure Humidity
    00:00 +8°C° 0 mm 4 mps 752 mmHg 81%
    01:00 +7°C° 0 mm 4 mps 752 mmHg 82%
    02:00 +7°C° 0 mm 4 mps 752 mmHg 84%
    03:00 +8°C° 0 mm 3 mps 752 mmHg 86%
    04:00 +7°C° 0 mm 3 mps 752 mmHg 88%
    05:00 +9°C° 0 mm 3 mps 752 mmHg 82%
    06:00 +10°C° 0 mm 3 mps 752 mmHg 75%
    07:00 +11°C° 0 mm 3 mps 752 mmHg 69%
    08:00 +14°C° 0 mm 3 mps 752 mmHg 59%
    09:00 +17°C° 0 mm 3 mps 752 mmHg 50%
    10:00 +20°C° 0 mm 3 mps 752 mmHg 40%
    11:00 +21°C° 0 mm 3 mps 751 mmHg 38%
    12:00 +22°C° 0 mm 3 mps 751 mmHg 36%
    13:00 +25°C° 0 mm 4 mps 750 mmHg 34%
    14:00 +23°C° 0 mm 4 mps 750 mmHg 36%
    15:00 +23°C° 0 mm 4 mps 750 mmHg 38%
    16:00 +22°C° 0 mm 4 mps 749 mmHg 40%
    17:00 +21°C° 0 mm 4 mps 749 mmHg 46%
    18:00 +19°C° 0 mm 3 mps 749 mmHg 53%
    19:00 +17°C° 0 mm 3 mps 749 mmHg 60%
    20:00 +14°C° 0 mm 3 mps 749 mmHg 67%
    21:00 +13°C° 0 mm 3 mps 750 mmHg 75%
    22:00 +11°C° 0 mm 3 mps 750 mmHg 83%
    23:00 +11°C° 0 mm 4 mps 749 mmHg 83%

    26 January, Thursday

    Time Temperature Precipitation Wind Pressure Humidity
    00:00 +11°C° 0 mm 4 mps 749 mmHg 82%
    01:00 +11°C° 0 mm 4 mps 749 mmHg 82%
    02:00 +11°C° 0 mm 4 mps 749 mmHg 83%
    03:00 +11°C° 0 mm 4 mps 748 mmHg 83%
    04:00 +11°C° 0 mm 4 mps 748 mmHg 84%
    05:00 +12°C° 0 mm 5 mps 748 mmHg 81%
    06:00 +13°C° 0 mm 5 mps 748 mmHg 78%
    07:00 +14°C° 0 mm 5 mps 749 mmHg 75%
    08:00 +14°C° 0 mm 6 mps 748 mmHg 73%
    09:00 +15°C° 0 mm 6 mps 748 mmHg 70%
    10:00 +16°C° 0 mm 6 mps 748 mmHg 68%
    11:00 +17°C° 0 mm 6 mps 748 mmHg 66%
    12:00 +17°C° 0 mm 6 mps 748 mmHg 63%
    13:00 +18°C° 0 mm 7 mps 747 mmHg 61%
    14:00 +19°C° 0 mm 6 mps 747 mmHg 60%
    15:00 +20°C° 0 mm 6 mps 747 mmHg 59%
    16:00 +20°C° 0 mm 6 mps 747 mmHg 58%
    17:00 +19°C° 0 mm 5 mps 747 mmHg 62%
    18:00 +17°C° 0 mm 5 mps 747 mmHg 66%
    19:00 +17°C° 0 mm 4 mps 747 mmHg 70%
    20:00 +15°C° 0 mm 4 mps 747 mmHg 76%
    21:00 +13°C° 0 mm 4 mps 747 mmHg 82%
    22:00 +12°C° 0 mm 3 mps 747 mmHg 88%
    23:00 +12°C° 0 mm 3 mps 747 mmHg 89%
    Show more